Home > Weather > Cottbus > Past weeks

Flag for Germany Past Weather in Cottbus, Brandenburg, Germany — Yesterday and Last 2 Weeks

Now
70 °F

Scattered clouds.


Feels Like: 70 °F
Forecast: 55 / 78 °F
Wind: 8 mph from Northwest

Location: Holzdorf

Current Time: Jun 28, 2016 at 1:27:55 PM

Latest Report: Jun 28, 2016 at 12:20 PM


Visibility: N/A

Pressure: 30.07 "Hg

Humidity: 50%

Dew Point: 50 °F

Location of CottbusLocation

Past Weather in Cottbus — Graph

°F

Cottbus Temperature Yesterday

Maximum temperature yesterday: 73 °F (at 2:20 PM)
Minimum temperature yesterday: 52 °F (at 1:20 AM)
Average temperature yesterday: 63 °F

High & Low Weather Summary for the Past Weeks

 TemperatureHumidityPressure
High93 °F (Jun 24, 4:20 PM)100% (Jun 13, 9:20 PM)30.24 "Hg (Jun 13, 9:20 PM)
Low46 °F (Jun 20, 5:20 AM)32% (Jun 24, 3:20 PM)29.50 "Hg (Jun 14, 1:20 PM)
Average65 °F74%29.90 "Hg
* Reported Jun 13 11:20 AM — Jun 28 11:20 AM, Cottbus, Weather by CustomWeather, © 2016

Note: Actual official high and low records may vary slightly from our data, if they occured in-between our weather recording intervals... More about our weather records

Advertising

Cottbus Weather History for the Previous 24 Hours

Scroll right to see more
 ConditionsComfort  
Time TempWeatherWind HumidityBarometerVisibility
11:20 AM
Tue, Jun 28
68 °FBroken clouds.12 mph53%30.07 "HgN/A
10:20 AM68 °FScattered clouds.10 mph56%30.07 "HgN/A
9:20 AM66 °FScattered clouds.10 mph68%30.07 "HgN/A
8:20 AM64 °FBroken clouds.9 mph83%30.04 "HgN/A
7:20 AM63 °FBroken clouds.8 mph83%30.04 "HgN/A
6:20 AM61 °FPartly sunny.5 mph88%30.04 "HgN/A
5:20 AM59 °FPassing clouds.3 mph94%30.04 "HgN/A
4:20 AM59 °FPassing clouds.3 mph88%30.04 "HgN/A
3:20 AM61 °FPassing clouds.5 mph77%30.04 "HgN/A
2:20 AM59 °FPassing clouds.5 mph77%30.04 "HgN/A
1:20 AM59 °FPassing clouds.3 mph72%30.04 "HgN/A
12:20 AM59 °FPassing clouds.2 mph72%30.04 "HgN/A
11:20 PM
Mon, Jun 27
61 °FPassing clouds.2 mph63%30.04 "HgN/A
10:20 PM63 °FPassing clouds.2 mph59%30.04 "HgN/A
9:20 PM64 °FScattered clouds.2 mph60%30.04 "HgN/A
8:20 PM72 °FScattered clouds.3 mph41%30.04 "HgN/A
7:20 PM73 °FScattered clouds.13 mph33%30.04 "HgN/A
6:20 PM73 °FPassing clouds.12 mph36%30.04 "HgN/A
5:20 PM73 °FPassing clouds.12 mph36%30.04 "HgN/A
4:20 PM73 °FPassing clouds.10 mph38%30.04 "HgN/A
3:20 PM73 °FPassing clouds.15 mph36%30.04 "HgN/A
2:20 PM73 °FScattered clouds.13 mph38%30.07 "HgN/A
1:20 PM70 °FScattered clouds.12 mph46%30.07 "HgN/A
Weather by CustomWeather, © 2016

See weather overviewHow to use our weather pages